• In Portugal
  • List of Countries
  • For 7 days
  • Water Temperature
  • Satellite Maps
  • Weather Map
  • Weather Widgets
  • user-avatar
    Login

    Hourly Weather Florianópolis

    Today, 16 August, Thursday

    Time Temperature Precipitation Wind Pressure Humidity
    00:00 +11°C° 0 mm 4 mps 768 mmHg 94%
    01:00 +11°C° 0 mm 4 mps 769 mmHg 95%
    02:00 +11°C° 0 mm 4 mps 769 mmHg 95%
    03:00 +11°C° 0 mm 4 mps 769 mmHg 96%
    04:00 +11°C° 0 mm 3 mps 769 mmHg 96%
    05:00 +10°C° 0 mm 3 mps 769 mmHg 97%
    06:00 +10°C° 0 mm 3 mps 769 mmHg 97%
    07:00 +12°C° 0 mm 3 mps 769 mmHg 89%
    08:00 +14°C° 0 mm 3 mps 769 mmHg 81%
    09:00 +17°C° 0 mm 3 mps 770 mmHg 73%
    10:00 +19°C° 0 mm 3 mps 770 mmHg 67%
    11:00 +21°C° 0 mm 3 mps 770 mmHg 61%
    12:00 +22°C° 0 mm 4 mps 770 mmHg 55%
    13:00 +22°C° 0 mm 3 mps 770 mmHg 58%
    14:00 +22°C° 0 mm 3 mps 769 mmHg 60%
    15:00 +21°C° 0 mm 3 mps 769 mmHg 63%
    16:00 +20°C° 0 mm 3 mps 769 mmHg 70%
    17:00 +19°C° 0 mm 3 mps 770 mmHg 78%
    18:00 +17°C° 0 mm 2 mps 770 mmHg 86%
    19:00 +16°C° 0 mm 2 mps 770 mmHg 90%
    20:00 +15°C° 0 mm 2 mps 771 mmHg 94%
    21:00 +14°C° 0 mm 2 mps 771 mmHg 98%
    22:00 +14°C° 0 mm 2 mps 771 mmHg 98%
    23:00 +14°C° 0 mm 2 mps 771 mmHg 98%

    Tomorrow, 17 August, Friday

    Time Temperature Precipitation Wind Pressure Humidity
    00:00 +14°C° 0 mm 2 mps 771 mmHg 98%
    01:00 +14°C° 0.1 mm 2 mps 771 mmHg 98%
    02:00 +14°C° 0.1 mm 2 mps 771 mmHg 98%
    03:00 +14°C° 0.1 mm 2 mps 770 mmHg 98%
    04:00 +14°C° 0.1 mm 2 mps 770 mmHg 97%
    05:00 +15°C° 0.1 mm 2 mps 770 mmHg 96%
    06:00 +15°C° 0.1 mm 2 mps 770 mmHg 95%
    07:00 +16°C° 0.2 mm 2 mps 771 mmHg 94%
    08:00 +17°C° 0.2 mm 2 mps 771 mmHg 93%
    09:00 +17°C° 0.2 mm 2 mps 771 mmHg 92%
    10:00 +18°C° 0.2 mm 2 mps 771 mmHg 91%
    11:00 +19°C° 0.2 mm 3 mps 771 mmHg 89%
    12:00 +20°C° 0.2 mm 3 mps 771 mmHg 87%
    13:00 +20°C° 0.1 mm 3 mps 771 mmHg 86%
    14:00 +20°C° 0.1 mm 3 mps 770 mmHg 84%
    15:00 +21°C° 0.1 mm 3 mps 770 mmHg 83%
    16:00 +20°C° 0.1 mm 3 mps 769 mmHg 87%
    17:00 +19°C° 0.1 mm 3 mps 769 mmHg 92%
    18:00 +18°C° 0.1 mm 3 mps 769 mmHg 96%
    19:00 +18°C° 0.1 mm 3 mps 770 mmHg 96%
    20:00 +17°C° 0.1 mm 3 mps 770 mmHg 97%
    21:00 +17°C° 0.1 mm 3 mps 770 mmHg 98%
    22:00 +17°C° 0.1 mm 3 mps 770 mmHg 98%
    23:00 +17°C° 0.1 mm 3 mps 770 mmHg 98%

    Day after tomorrow, 18 August, Saturday

    Time Temperature Precipitation Wind Pressure Humidity
    00:00 +17°C° 0.1 mm 3 mps 770 mmHg 98%
    01:00 +17°C° 0.1 mm 3 mps 770 mmHg 98%
    02:00 +17°C° 0.1 mm 3 mps 769 mmHg 98%
    03:00 +17°C° 0.1 mm 3 mps 769 mmHg 98%
    04:00 +17°C° 0.1 mm 3 mps 769 mmHg 98%
    05:00 +17°C° 0.1 mm 3 mps 768 mmHg 98%
    06:00 +17°C° 0.1 mm 3 mps 768 mmHg 98%
    07:00 +17°C° 0.1 mm 3 mps 769 mmHg 96%
    08:00 +18°C° 0.1 mm 3 mps 769 mmHg 95%
    09:00 +19°C° 0.1 mm 3 mps 769 mmHg 93%
    10:00 +19°C° 0.1 mm 3 mps 769 mmHg 90%
    11:00 +20°C° 0.1 mm 3 mps 769 mmHg 88%
    12:00 +21°C° 0.1 mm 4 mps 769 mmHg 85%
    13:00 +21°C° 0.1 mm 4 mps 768 mmHg 84%
    14:00 +21°C° 0.1 mm 4 mps 767 mmHg 84%
    15:00 +21°C° 0.1 mm 4 mps 767 mmHg 83%
    16:00 +21°C° 0.1 mm 4 mps 766 mmHg 87%
    17:00 +20°C° 0.1 mm 4 mps 766 mmHg 91%
    18:00 +19°C° 0.1 mm 4 mps 766 mmHg 95%
    19:00 +19°C° 0.1 mm 4 mps 767 mmHg 95%
    20:00 +19°C° 0.1 mm 4 mps 767 mmHg 96%
    21:00 +19°C° 0.1 mm 4 mps 767 mmHg 96%
    22:00 +19°C° 0.2 mm 4 mps 767 mmHg 96%
    23:00 +19°C° 0.2 mm 4 mps 767 mmHg 96%

    19 August, Sunday

    Time Temperature Precipitation Wind Pressure Humidity
    00:00 +19°C° 0.2 mm 4 mps 767 mmHg 96%
    01:00 +19°C° 0.2 mm 4 mps 767 mmHg 96%
    02:00 +19°C° 0.2 mm 4 mps 766 mmHg 96%
    03:00 +19°C° 0.2 mm 4 mps 766 mmHg 96%
    04:00 +19°C° 0.1 mm 4 mps 766 mmHg 96%
    05:00 +18°C° 0.1 mm 4 mps 766 mmHg 96%
    06:00 +18°C° 0.1 mm 3 mps 766 mmHg 95%
    07:00 +19°C° 0 mm 3 mps 767 mmHg 92%
    08:00 +20°C° 0 mm 3 mps 767 mmHg 89%
    09:00 +21°C° 0 mm 3 mps 767 mmHg 86%
    10:00 +23°C° 0 mm 4 mps 767 mmHg 78%
    11:00 +25°C° 0 mm 4 mps 767 mmHg 69%
    12:00 +27°C° 0 mm 4 mps 766 mmHg 61%
    13:00 +27°C° 0 mm 4 mps 765 mmHg 59%
    14:00 +28°C° 0 mm 5 mps 765 mmHg 56%
    15:00 +29°C° 0 mm 5 mps 764 mmHg 54%
    16:00 +27°C° 0 mm 5 mps 764 mmHg 64%
    17:00 +25°C° 0 mm 4 mps 764 mmHg 74%
    18:00 +22°C° 0 mm 4 mps 765 mmHg 84%
    19:00 +21°C° 0 mm 4 mps 765 mmHg 88%
    20:00 +20°C° 0 mm 4 mps 765 mmHg 92%
    21:00 +19°C° 0 mm 4 mps 766 mmHg 96%
    22:00 +19°C° 0 mm 3 mps 766 mmHg 96%
    23:00 +19°C° 0 mm 3 mps 766 mmHg 96%

    20 August, Monday

    Time Temperature Precipitation Wind Pressure Humidity
    00:00 +19°C° 0 mm 3 mps 766 mmHg 96%
    01:00 +19°C° 0 mm 3 mps 765 mmHg 96%
    02:00 +19°C° 0 mm 3 mps 765 mmHg 96%
    03:00 +19°C° 0 mm 2 mps 765 mmHg 97%
    04:00 +19°C° 0.2 mm 2 mps 765 mmHg 97%
    05:00 +19°C° 0.2 mm 2 mps 765 mmHg 98%
    06:00 +19°C° 0.2 mm 2 mps 765 mmHg 98%
    07:00 +19°C° 1.5 mm 2 mps 766 mmHg 98%
    08:00 +19°C° 1.5 mm 2 mps 766 mmHg 98%
    09:00 +19°C° 1.5 mm 2 mps 767 mmHg 98%
    10:00 +20°C° 0.2 mm 3 mps 767 mmHg 97%
    11:00 +20°C° 0.2 mm 3 mps 766 mmHg 96%
    12:00 +21°C° 0.2 mm 4 mps 766 mmHg 94%
    13:00 +20°C° 0.1 mm 5 mps 766 mmHg 94%
    14:00 +20°C° 0.1 mm 5 mps 766 mmHg 94%
    15:00 +20°C° 0.1 mm 6 mps 766 mmHg 94%
    16:00 +19°C° 0.7 mm 6 mps 766 mmHg 95%
    17:00 +17°C° 0.7 mm 6 mps 766 mmHg 97%
    18:00 +16°C° 0.7 mm 6 mps 766 mmHg 98%
    19:00 +16°C° 3.1 mm 5 mps 767 mmHg 98%
    20:00 +16°C° 3.1 mm 5 mps 767 mmHg 98%
    21:00 +16°C° 3.1 mm 5 mps 768 mmHg 98%
    22:00 +15°C° 0.6 mm 4 mps 767 mmHg 98%
    23:00 +15°C° 0.6 mm 4 mps 767 mmHg 98%

    21 August, Tuesday

    Time Temperature Precipitation Wind Pressure Humidity
    00:00 +16°C° 0.6 mm 3 mps 767 mmHg 98%
    01:00 +15°C° 1.5 mm 4 mps 767 mmHg 98%
    02:00 +15°C° 1.5 mm 4 mps 767 mmHg 98%
    03:00 +15°C° 1.5 mm 4 mps 766 mmHg 98%
    04:00 +16°C° 0.4 mm 3 mps 766 mmHg 98%
    05:00 +16°C° 0.4 mm 3 mps 766 mmHg 98%
    06:00 +16°C° 0.4 mm 3 mps 766 mmHg 98%
    07:00 +17°C° 0.2 mm 2 mps 767 mmHg 98%
    08:00 +17°C° 0.2 mm 2 mps 767 mmHg 98%
    09:00 +17°C° 0.2 mm 2 mps 767 mmHg 97%
    10:00 +17°C° 0.7 mm 2 mps 767 mmHg 98%
    11:00 +18°C° 0.7 mm 2 mps 767 mmHg 98%
    12:00 +18°C° 0.7 mm 2 mps 767 mmHg 98%
    13:00 +18°C° 1.2 mm 2 mps 767 mmHg 97%
    14:00 +19°C° 1.2 mm 2 mps 766 mmHg 95%
    15:00 +19°C° 1.2 mm 2 mps 766 mmHg 94%
    16:00 +19°C° 1.1 mm 3 mps 766 mmHg 96%
    17:00 +19°C° 1.1 mm 3 mps 766 mmHg 97%
    18:00 +18°C° 1.1 mm 3 mps 766 mmHg 99%
    19:00 +18°C° 1.5 mm 3 mps 766 mmHg 99%
    20:00 +18°C° 1.5 mm 4 mps 767 mmHg 99%
    21:00 +18°C° 1.5 mm 4 mps 767 mmHg 99%
    22:00 +18°C° 1 mm 4 mps 767 mmHg 99%
    23:00 +18°C° 1 mm 4 mps 766 mmHg 99%
    Show more